Notices

What's New in latest Release from April 7th, 2021:

- Updated Glossary, including Speed of Maximum Gust, and Total Hourly Precipitation

- Updated national and regional climate services offices contacts and prices information

- Addition of station inventory lists for 1981-2010, 1971-2000, and 1961-1990 Normals.

If you haven't already, please take our survey and provide feedback about our website: https://eccc.sondage-survey.ca/f/LanguageSelection.aspx?s=442ca660-fcf1-47c0-95a9-59707d6fd709

Hourly Data Report for December 08, 2019

EUREKA CLIMATE
NUNAVUT
Current Station Operator: ECCC - MSC

79°59'21.000" N
85°56'02.000" W
10.00 m
2401199
71613
NEK

Download Data

Hourly Data (December 2019)
Hourly Data Report for December 8, 2019
TIME
LST
Temp Definition
°C
Dew Point Definition
°C
Rel Hum Definition
%
Precip. Amount Definition
mm

Wind Dir Definition
10's deg

Wind Spd Definition
km/h
Visibility Definition
km
Stn Press Definition
kPa
Hmdx Definition


Wind Chill Definition


Weather Definition


00:00 -30.3 -33.2 76 0.0 11 6   100.95   -37 LegendNANA
01:00 -30.0 -32.9 76 0.0 12 6   101.01   -37 LegendNANA
02:00 -29.4 -32.2 77 0.0 13 5   101.10   -35 LegendNANA
03:00 -28.9 -31.6 77 0.0 13 4   101.17   -33 LegendNANA
04:00 -28.4 -31.0 78 0.0   0   101.24     LegendNANA
05:00 -29.1 -31.8 77 0.0 11 7   101.32   -36 LegendNANA
06:00 -28.1 -30.7 78 0.0 10 4   101.39   -32 LegendNANA
07:00 -28.3 -30.9 78 0.0 4 2   101.45   -30 LegendNANA
08:00 -28.3 -30.9 78 0.0 16 1   101.53   -29 LegendNANA
09:00 -29.3 -32.1 77 0.0 12 7   101.60   -36 LegendNANA
10:00 -30.1 -32.9 77 0.0 12 5   101.67   -36 LegendNANA
11:00 -32.9 -36.1 73 0.0 11 7   101.73   -41 LegendNANA
12:00 -33.0 -36.2 73 0.0 11 5   101.79   -39 LegendNANA
13:00 -34.6 -38.0 72 0.0 11 9   101.87   -44 LegendNANA
14:00 -33.7 -37.0 73 0.0 12 3   101.92   -37 LegendNANA
15:00 -33.0 -36.2 73 0.0 10 4   101.98   -38 LegendNANA
16:00 -34.6 -38.0 72 0.0 13 5   102.05   -41 LegendNANA
17:00 -35.4 -38.8 71 0.0 0 1   102.09   -37 LegendNANA
18:00 -36.0 -39.5 70 0.0   0   102.12     LegendNANA
19:00 -35.6 -39.1 71 0.0 13 2   102.17   -38 LegendNANA
20:00 -36.0 -39.5 70 0.0 11 4   102.19   -41 LegendNANA
21:00 -36.1 -39.6 70 0.0   0   102.24     LegendNANA
22:00 -36.3 -39.8 70 0.0 0 1   102.26   -38 LegendNANA
23:00 -36.0 -39.5 70 0.0 2 7   102.29   -44 LegendNANA

Notes on Data Quality.

Legend

  • E = Estimated
  • M = Missing
  • NA = Not Available*
  • [empty] = Indicates an unobserved value
Date modified: